Location: Newark
(42.7133°N, 87.7910°W)
Time: 23:18:20
(UTC+00:00)

Envisat - Visible Passes

Search period start: 25 August 2019 00:00
Search period end: 04 September 2019 00:00
Orbit: 764 x 766 km, 98.1° (Epoch: 25 August)

Date Brightness Start Highest point End Pass type
(mag) Time Alt. Az. Time Alt. Az. Time Alt. Az.
26 Aug 6.0 01:32:06 10° WSW 01:34:44 14° W 01:37:21 10° WNW visible
29 Aug 5.8 01:19:57 10° SW 01:23:21 18° W 01:26:46 10° NW visible
01 Sep 5.7 01:08:03 10° SW 01:11:59 22° W 01:15:57 10° NW visible
03 Sep 6.1 01:35:36 10° WSW 01:37:47 13° W 01:39:59 10° WNW visible
